Hlavní strana
METAR-TAF:

METAR-TAF

Letiště :

Flora Municipal Airport

Flora, Illinois, Spojené státy americké

zeměpisná šířka: 38-39-54N, zeměpisná délka: 088-27-11W, výška: 144 m

Aktuální stav počasí

Zpráva byla vytvořena před 27 minutami, v 04:35 UTC
Jihozápadní vítr 14 kt
Teplota 20°C
Vlhkost vzduchu 83%
Tlak 1003 hPa
Viditelnost: 16.1 km
Polojasno ve výšce 2000 ft

METAR: KFOA 290435Z AUTO 22014KT 10SM SCT020 20/17 A2963 RMK AO2

Čas: 00:02 (05:02 UTC)


TAF: chybějící

Stav a předpovědi počasí z více než 4 000 letišť (zprávy METAR a TAF).

Červené a žluté tečky na mapě představují dostupné meteorologické stanice.

Když kurzor umístíte na tečku, zobrazí se název stanice.

Pak kliknutím zobrazíte stav a předpověď počasí.

Chcete-li změnit mapu, kliknutím na zelené tlačítko se znaménkem +mapu přiblížíte, kliknutím na zelené tlačítko se znaménkem – mapu oddálíte a kliknutím na zelené šipky přejdete na sousední mapy.


METAR-TAF: